Regional Weather Roundup
Issued by NWS

Home | Current Version | Previous Version | Graphics & Text | Print | Product List | Glossary Off
Versions: 1 2 3 4 5 6 7 8 9 10 11 12 13 14 15 16 17 18 19 20 21 22 23 24 25 26 27 28 29 30 31 32 33 34 35 36 37 38 39 40 41 42 43 44 45 46 47 48 49 50

000
ASUS44 KFWD 200915
RWRTX
NORTH TEXAS HOURLY WEATHER ROUNDUP
NATIONAL WEATHER SERVICE FORT WORTH TX
400 AM CDT SUN AUG 20 2017

NOTE: "FAIR" INDICATES FEW OR NO CLOUDS BELOW 12,000 FEET WITH NO
SIGNIFICANT WEATHER AND/OR OBSTRUCTIONS TO VISIBILITY.

TXZ118-119-201000-
DALLAS/FORT WORTH METROPLEX

CITY           SKY/WX    TMP DP  RH WIND       PRES   REMARKS
DFW AIRPORT    PTCLDY    84  71  65 S10       29.93F
DALLAS LOVE    PTCLDY    84  71  65 S9        29.95S
FTW MEACHAM    CLEAR     82  70  66 S8        29.95S
DAL-EXECUTIVE  CLEAR     82  71  69 VRB6      29.95F
FTW-ALLIANCE   PTCLDY    81  70  69 S6        29.95S
FTW-NAS-JRB    CLEAR     81  69  67 S9        29.95S
FTW-SPINKS     CLEAR     78  68  69 S5        29.97S
ARLINGTON      CLEAR     81  71  71 S8        29.95F
GRAND PRAIRIE  CLEAR     83  68  59 S6        29.97S
ADDISON        CLEAR     84  70  64 S7        29.97S
MESQUITE         N/A     77  74  90 SW5       29.95F
LANCASTER      CLEAR     78  71  80 CALM      29.97S
$$

TXZ091>094-102>105-117-120-121-131>134-201000-
NORTH CENTRAL TEXAS

CITY           SKY/WX    TMP DP  RH WIND       PRES   REMARKS
SHRMAN/DENISON CLEAR     80  73  77 S10       29.96F
GAINESVILLE    CLOUDY    76  73  88 SE3       29.97S
BOWIE          CLOUDY    77  73  85 SE5       29.96F
BRIDGEPORT     CLOUDY    78  70  77 S3        29.97S
DECATUR        CLOUDY    80  70  70 S10         N/A
DENTON         CLEAR     80  72  76 S8        29.94F
MCKINNEY       PTCLDY    79  76  90 S5        29.95F
BONHAM         PTCLDY    79  73  83 S8        29.95F
GREENVILLE     CLEAR     81  75  83 S3        29.96F
ROCKWALL       CLEAR     80  73  81 S8        29.96F
TERRELL        PTCLDY    79  73  82 S5        29.96F
WAXAHACHIE     CLEAR     77  71  81 S5        29.98S
CLEBURNE       CLEAR     79  72  78 S8        29.98S
GRANBURY       CLEAR     79  69  69 SE5       29.97S
$$

TXZ083>090-098>101-113>116-127>130-139>142-154-155-201000-
WESTERN NORTH TEXAS

CITY           SKY/WX    TMP DP  RH WIND       PRES   REMARKS
WICHITA FALLS  CLOUDY    73  70  90 SE6       29.93F
WF-KICKAPOO    CLOUDY    76  71  85 SE3       29.96S
VERNON         PTCLDY    76  65  69 E3        29.95F
ABILENE        CLEAR     74  66  76 S8        29.99S
ABILENE-DYESS  CLEAR     72  67  84 S9        29.97F
GRAHAM         PTCLDY    75  75 100 CALM      29.94F
BRECKENRIDGE   CLEAR     77  66  68 S5        29.96S
CISCO          CLEAR     75  66  73 S10       29.99S
EASTLAND       CLEAR     72  66  82 SE3       29.98S
RANGER         CLEAR     76  66  70 S7        29.98S
MINERAL WELLS  CLEAR     76  70  82 SE7       29.94F
STEPHENVILLE   CLEAR     74  67  76 CALM      30.01S
COMANCHE       CLEAR     75  66  73 S9        29.99S
BROWNWOOD      PTCLDY    72  66  83 E5        29.99S
COLEMAN        CLEAR     74  62  66 S3        30.00S
$$

TXZ143>147-156>162-174-175-201000-
CENTRAL TEXAS

CITY           SKY/WX    TMP DP  RH WIND       PRES   REMARKS
WACO           CLEAR     81  70  69 S9        29.96S
WACO-MCGREGOR  CLEAR     80  69  69 S9        29.97S
HILLSBORO      CLEAR     80  70  70 SE8       29.97S
CORSICANA      CLEAR     81  72  74 S7        29.97F
MEXIA          CLEAR     77  70  78 S7        29.97S
HEARNE         CLEAR     77  73  87 CALM      29.98F
CAMERON        CLEAR     79  71  76 CALM      29.97S
TEMPLE         CLEAR     80  69  69 S9        29.98F
KILLEEN        CLEAR     79  67  66 S9        29.98S
KILLEEN-SKYLRK CLEAR     78  68  71 S6        29.98F
FORT HOOD      CLEAR     78  67  69 S7        29.95F
HAMILTON       CLEAR     76  66  71 S8        30.00S
LAMPASAS       CLEAR     77  69  76 CALM      29.99S
$$

TXZ095>097-106>112-122>126-135>138-148>153-164>167-201000-
EAST TEXAS

CITY           SKY/WX    TMP DP  RH WIND       PRES   REMARKS
PARIS          PTCLDY    77  75  93 SE3       29.97F
SULPHUR SPRNGS CLEAR     81  74  81 S6        29.98F
MOUNT PLEASANT CLEAR     78  76  93 CALM      29.97F
GILMER         CLEAR     77  74  91 CALM      29.97S
MINEOLA        CLEAR     81  73  78 S5        29.97S
TYLER          PTCLDY    79  76  90 S6        29.97S
LONGVIEW       PTCLDY    79  76  90 S5        29.96S
MARSHALL         N/A     75  73  93 CALM      29.99S
ATHENS         PTCLDY    77  73  88 CALM      29.96S
PALESTINE      CLEAR     78  74  87 SE3       29.98F
JACKSONVILLE   CLEAR     79  74  85 S5        30.01S
HENDERSON      PTCLDY    77  74  88 CALM      29.98S
CENTER         MOSUNNY   80  78  95 CALM      29.99S FOG
NACOGDOCHES    CLEAR     75  73  94 CALM      29.98F
LUFKIN         CLEAR     76  74  93 CALM      29.97F
$$

SUPPLEMENTAL OBSERVATIONS (NWS FORT WORTH AREA)

CITY           SKY/WX    TMP DP  RH WIND       PRES   REMARKS
DENISON DAM      N/A     82  72  69 S5          N/A
CADDO GRASSLND   N/A     79  73  83 S5          N/A
PAT MAYSE LAKE   N/A     81  77  89 SE7         N/A
GREENVILLE       N/A     79  73  83 S3          N/A
CEDAR HILL       N/A     82  68  61 S8          N/A
LBJ GRASSLAND    N/A     81  68  65 SE8         N/A
POSSUM KINGDOM   N/A     75  68  78 S2          N/A
GRANBURY         N/A     81  68  65 SE6         N/A
COMANCHE         N/A     79  64  61 S10         N/A
MCGREGOR         N/A     79  66  65 S7          N/A
TEMPLE           N/A     79  68  69 S5          N/A
LAKE LIMESTONE   N/A     79  72  78 SW5         N/A
$$

SUPPLEMENTAL OBSERVATIONS (NWS NORMAN AREA)

CITY           SKY/WX    TMP DP  RH WIND       PRES   REMARKS
GOODLETT         N/A     74  64  70 S18       29.97
ODELL            N/A     72  69  89 E6        29.97
CROWELL          N/A     74  71  90 W2        29.97
KNOX CITY        N/A     75  67  76 S3        29.96
SEYMOUR          N/A     77  68  73 SE8       29.96
MILLERS CREEK    N/A     79  70  73 S12         N/A
$$

SUPPLEMENTAL OBSERVATIONS (NWS SAN ANGELO AREA)

CITY           SKY/WX    TMP DP  RH WIND       PRES   REMARKS
WEINERT          N/A     73  68  83 S8        29.97
HASKELL          N/A     75  64  68 S6        29.97
THROCKMORTON     N/A     74  70  87 S6        29.98
STAMFORD         N/A     74  67  78 S6        29.98
CLYDE            N/A     73  65  77 S9        30.02
HAMBY            N/A     75  64  69 S8          N/A
IVIE RESERVOIR   N/A     75  63  64 E6          N/A
COLORADO BEND    N/A     79  64  61 S6G14       N/A
$$

SUPPLEMENTAL OBSERVATIONS (NWS SHREVEPORT AREA)

CITY           SKY/WX    TMP DP  RH WIND       PRES   REMARKS
CLARKSVILLE      N/A     77  73  88 SE1         N/A
TEXARKANA        N/A     75  73  94 CALM        N/A
LINDEN           N/A     77  72  83 CALM        N/A
CADDO LAKE       N/A     73  72  94 CALM        N/A
GILMER           N/A     75  73  94 CALM        N/A
HENDERSON        N/A     77  75  94 S1          N/A
LUFKIN           N/A     75  73  94 MISG        N/A
N SABINE NF      N/A     75  73  94 MISG        N/A
S SABINE NF      N/A     75  72  88 CALM        N/A
$$

SUPPLEMENTAL OBSERVATIONS ARE A COLLECTION OF AUTOMATED INSTRUMENTS
THAT ARE MAINTAINED BY A VARIETY OF FEDERAL AND STATE AGENCIES.
CERTAIN ELEMENTS...SUCH AS HUMIDITY VALUES AND SUSTAINED WIND
SPEEDS...MAY BE APPROXIMATED.





USA.gov is the U.S. government's official web portal to all federal, state and local government web resources and services.